GFSSW_850_temp_231.txt.gz
Temp
15 15 16 16 17 17 17 18 19 20 20 21 22 23 24 25 25 25 27 26 26 26 24 23 22 20 19 19 20 19 19 20 22 23 23 22 23 22 23 21 22 22 20 20 19
14 14 15 15 16 17 17 17 18 19 20 20 21 22 24 25 25 26 27 27 26 26 25 24 23 20 19 19 20 20 20 22 22 21 22 22 23 22 22 22 21 20 20 19 19
14 14 15 15 15 16 17 17 17 18 19 20 20 21 23 24 25 26 27 27 27 25 24 24 23 20 19 20 21 22 21 23 22 22 21 21 20 23 22 21 21 20 19 19 19
14 14 14 15 15 16 16 17 17 17 18 19 20 21 22 23 23 26 26 26 26 25 24 23 21 22 23 22 23 23 24 22 21 21 20 20 18 20 19 19 21 21 20 20 19
14 14 14 15 15 16 16 17 17 17 17 18 19 20 21 22 25 26 26 26 26 26 26 24 23 23 23 25 25 24 24 23 21 21 19 20 17 18 18 20 21 20 20 19 20
14 14 14 15 15 16 17 17 17 17 17 17 18 19 19 19 25 26 26 26 26 26 26 25 25 25 25 26 23 22 22 22 21 21 20 20 18 19 17 19 21 21 20 20 20
14 14 15 15 15 16 17 17 17 17 17 17 17 18 18 23 24 25 25 25 25 25 25 26 26 25 25 25 23 23 22 21 21 20 21 20 19 19 19 20 21 21 21 21 21
14 14 15 15 16 16 17 17 18 18 18 17 17 17 18 23 24 24 24 25 25 25 25 26 25 25 25 26 26 24 21 20 21 21 21 20 20 19 18 19 22 21 22 22 22
14 14 15 15 16 17 17 18 18 18 18 17 17 16 19 22 22 25 24 25 25 25 26 25 24 26 26 22 22 22 21 21 21 22 21 21 18 19 18 19 20 22 22 22 22
14 14 15 16 16 17 18 18 18 18 17 17 16 16 20 22 22 23 25 25 25 26 26 24 25 22 20 21 21 23 21 21 21 21 20 20 19 18 18 19 21 22 22 22 22
14 14 15 16 16 17 17 18 18 17 16 17 18 19 20 21 22 23 24 25 25 25 22 24 21 21 22 22 24 24 24 24 23 21 21 20 18 18 19 19 20 21 22 23 22
14 15 15 16 16 16 17 16 15 14 14 18 18 18 20 19 19 23 24 24 23 21 22 22 20 22 23 24 24 24 24 23 22 20 21 19 20 20 20 20 20 21 23 23 23
15 15 15 16 16 16 16 16 17 17 15 17 18 18 19 20 20 22 23 24 22 21 21 20 22 24 24 24 25 23 23 24 23 20 21 20 21 20 21 21 21 21 22 23 23
14 14 15 16 16 16 16 16 17 17 10 14 17 19 19 21 20 23 23 24 22 21 19 21 22 24 24 24 24 22 24 26 22 20 21 22 21 21 20 20 20 22 22 23 23
13 14 14 15 15 15 16 16 17 17 14 21 20 21 20 21 22 23 24 24 20 21 20 20 22 22 23 23 23 23 26 25 22 21 20 20 20 20 21 21 20 21 23 23 23
13 14 15 15 15 15 16 16 17 12 14 18 20 19 20 20 22 23 23 24 24 21 20 20 24 23 23 24 24 25 26 25 20 19 20 21 21 21 19 24 25 23 23 23 23
15 15 15 15 15 15 16 17 11 11 16 17 17 17 18 19 20 21 21 20 19 19 19 21 21 23 25 23 24 23 22 21 20 19 20 19 20 25 24 24 25 25 23 23 24
16 16 16 15 15 15 16 12 13 15 15 18 18 16 16 17 20 20 18 18 18 17 14 17 19 21 23 22 21 21 20 18 21 19 21 21 21 24 24 26 26 27 27 23 24
16 17 16 16 16 16 16 10 12 15 17 16 16 16 15 16 19 18 18 17 18 16 18 15 18 20 22 23 22 21 20 20 20 20 20 20 22 24 24 22 25 25 26 25 23
17 17 16 16 16 16 10 11 12 15 16 16 16 17 15 15 16 15 18 19 19 17 18 17 19 20 23 24 23 22 21 20 17 20 21 20 22 23 24 24 23 24 24 25 24
17 17 16 16 16 15 10 10 14 15 15 15 14 15 14 14 15 16 18 19 19 19 16 15 16 19 21 20 20 20 20 19 18 18 20 19 20 21 23 23 23 22 24 25 26
16 12 15 16 14 8 10 13 15 14 14 13 13 13 12 13 14 15 17 18 18 19 19 17 13 16 18 20 20 19 19 19 18 20 17 18 21 23 24 21 22 20 21 25 25
15 15 16 16 10 9 11 13 13 13 12 12 11 11 12 12 14 14 14 17 15 16 20 18 14 15 16 17 19 21 19 19 16 16 19 19 20 22 20 20 21 21 24 24 25
14 9 14 14 12 11 11 10 10 12 12 11 10 10 9 9 10 10 11 13 13 15 18 17 12 15 19 17 18 21 21 20 18 16 18 18 22 22 20 19 19 18 20 22 24
12 9 10 8 10 9 9 10 9 9 11 10 9 9 9 8 8 9 9 10 12 12 13 14 16 17 17 19 20 21 19 20 20 20 20 21 20 20 20 19 19 18 17 18 20
10 9 11 10 10 9 7 8 9 9 9 8 8 9 9 9 9 8 7 8 9 9 10 10 15 17 19 19 20 17 16 18 17 16 20 18 18 17 18 18 17 16 16 16 17
10 9 10 9 8 8 8 9 9 9 9 10 9 8 8 8 9 9 9 9 9 9 8 9 12 14 17 17 19 16 15 15 15 16 15 19 18 16 16 16 15 15 14 14 15

GFSSW_850_temp_234.txt.gz
Temp
14 14 15 15 16 16 17 18 19 19 20 21 22 23 23 24 25 25 26 26 26 25 23 22 21 20 20 20 20 20 19 20 21 21 21 22 21 22 21 21 21 21 19 19 18
14 15 15 15 15 16 16 17 18 18 19 20 21 23 23 24 25 26 26 26 25 25 24 23 22 20 20 20 19 19 20 21 21 20 21 21 21 22 22 21 19 18 20 19 18
14 14 15 15 15 16 16 17 17 18 18 19 21 22 23 24 25 25 26 26 25 25 24 23 23 21 19 19 20 20 21 22 22 21 22 20 20 21 21 20 20 18 19 19 18
14 14 14 15 15 16 16 16 17 18 18 19 20 21 22 23 23 25 25 26 25 24 23 22 21 20 21 20 21 21 22 23 21 21 21 20 19 19 19 19 20 20 20 19 18
14 14 14 15 15 16 16 16 17 17 18 18 19 20 21 22 24 25 24 24 24 24 24 23 21 22 23 24 23 22 22 21 21 21 21 18 19 19 18 20 20 20 19 19 19
14 14 14 15 15 16 16 17 17 17 18 18 18 19 19 19 24 25 25 25 25 24 23 24 24 24 24 24 22 22 21 21 20 20 20 19 18 19 17 20 20 20 19 19 19
14 14 15 15 15 16 17 17 17 18 18 18 18 18 18 22 24 25 25 25 25 24 24 24 25 24 25 23 22 22 20 20 19 20 20 20 19 19 18 19 19 19 19 19 20
14 14 15 15 16 17 17 17 18 18 18 18 18 17 19 22 23 23 23 24 24 23 23 24 24 24 24 24 23 22 20 20 20 20 20 20 19 19 18 18 19 19 19 19 19
14 15 15 15 16 17 17 18 18 18 18 17 17 17 19 21 22 23 24 24 24 23 24 23 23 24 24 22 21 20 21 21 21 21 20 19 19 18 19 18 19 20 19 19 19
15 15 15 16 16 17 17 17 17 17 17 16 16 16 19 20 20 22 23 23 24 24 24 23 23 20 19 22 21 22 21 21 21 20 20 19 19 18 18 18 20 21 21 20 20
15 15 16 16 16 16 17 17 17 16 16 17 17 18 19 20 21 22 22 23 23 24 21 22 20 20 21 21 24 23 23 23 21 20 20 18 19 17 18 18 19 20 21 21 21
14 15 16 16 17 16 16 16 14 13 12 17 18 18 19 18 18 22 22 22 22 20 21 20 19 20 22 22 23 23 24 23 20 20 20 19 19 19 18 18 19 20 21 21 22
14 15 15 16 16 16 16 16 15 16 14 16 17 17 18 18 18 21 22 23 20 19 19 19 21 22 23 23 23 23 22 23 23 20 20 19 19 19 19 19 19 20 21 22 22
14 15 15 16 16 16 16 16 16 17 10 14 18 18 18 18 18 22 23 23 21 19 18 20 22 23 22 23 23 22 23 24 20 20 20 21 20 18 19 19 19 20 22 22 22
15 15 15 15 15 15 16 16 17 17 12 18 19 20 19 18 20 20 23 23 20 20 19 20 20 21 22 22 23 23 24 24 22 19 20 20 19 20 19 19 20 20 21 23 23
15 15 15 15 15 15 16 16 16 11 13 16 18 17 18 19 20 21 22 23 22 19 20 20 22 21 21 23 23 24 25 20 17 17 18 20 20 21 18 22 21 21 21 22 23
16 16 16 15 15 15 16 16 11 11 15 16 16 14 14 17 19 20 19 19 18 17 18 20 21 22 23 22 23 22 21 19 19 18 18 19 19 22 23 22 23 22 21 22 23
16 16 16 15 15 15 16 12 14 15 14 16 16 14 16 15 17 17 18 17 17 16 14 16 18 20 22 21 20 19 20 17 20 18 20 18 20 23 22 24 25 26 24 22 23
17 16 16 16 16 16 16 9 12 13 14 15 14 14 14 15 15 16 17 16 17 16 17 15 17 19 21 21 21 20 19 19 18 17 18 19 20 22 23 23 23 24 23 22 23
17 17 16 16 16 15 10 11 13 13 13 14 14 13 13 13 14 14 16 19 18 16 17 16 18 19 21 22 21 20 19 19 15 18 19 19 21 21 23 23 22 22 22 22 23
16 17 16 16 15 16 9 10 13 14 13 13 12 12 12 13 12 14 16 18 14 16 16 15 16 19 20 19 19 18 19 16 16 16 17 19 19 19 22 22 21 21 23 23 23
16 11 15 16 13 6 9 11 13 12 12 11 12 11 11 11 11 13 15 16 14 13 18 16 12 15 18 18 18 18 18 18 16 18 15 17 19 22 20 20 21 21 24 25 25
15 14 15 15 10 8 10 11 12 11 10 10 10 10 11 10 12 12 12 14 13 12 12 16 12 14 16 16 18 20 18 16 14 14 16 18 19 19 18 18 19 20 20 24 25
14 10 14 13 10 9 10 9 9 11 9 10 9 9 9 9 10 9 10 12 12 12 14 14 10 13 14 16 16 19 19 17 16 15 17 17 21 21 20 19 17 18 19 20 22
12 8 9 7 8 7 8 9 9 9 9 9 8 8 8 8 9 9 9 9 11 11 11 10 15 13 14 15 18 17 17 17 18 17 19 20 18 20 18 18 16 17 18 19 19
10 9 10 8 8 9 6 8 9 9 9 8 8 8 8 8 9 7 8 8 9 8 7 7 14 15 18 18 17 14 15 15 15 15 17 19 19 16 17 16 16 15 15 16 16
10 9 9 8 6 7 7 9 9 8 9 9 8 7 7 7 9 9 8 9 9 7 6 7 9 11 16 16 16 16 15 15 16 16 16 17 17 16 17 15 14 13 13 14 15

GFSSW_850_temp_240.txt.gz
Temp
15 15 15 16 16 17 18 18 19 20 21 21 22 23 24 24 24 25 25 25 25 25 23 22 20 21 20 21 20 20 26 26 25 28 26 26 27 25 24 24 24 23 24 21 19
15 15 15 15 16 17 17 17 18 19 20 21 21 22 23 24 25 24 25 26 25 25 23 23 21 21 21 21 20 21 27 27 26 27 28 27 27 26 25 25 23 23 22 20 19
15 15 15 15 16 16 17 17 18 19 19 20 21 22 23 24 24 26 25 26 25 25 22 21 21 23 23 24 23 25 26 26 26 26 24 26 26 26 26 25 24 23 21 20 20
15 15 15 16 16 17 17 18 18 19 19 20 20 21 22 23 27 23 25 25 25 24 22 23 21 25 28 27 26 27 24 26 25 26 25 26 22 26 26 24 24 22 21 21 21
15 15 15 16 16 17 17 18 18 19 19 19 20 20 21 22 25 24 25 25 24 23 23 25 25 26 29 29 28 29 28 27 26 25 25 24 25 24 23 23 23 22 22 22 22
15 15 15 16 16 17 17 18 18 19 19 19 19 20 20 24 23 24 24 24 21 22 24 25 26 26 28 28 29 28 28 27 26 25 25 25 24 24 23 23 22 21 22 22 22
15 16 16 16 16 16 17 18 19 19 19 19 19 19 19 24 22 22 21 21 22 22 24 25 25 25 27 29 26 27 28 28 27 26 26 25 24 24 22 22 21 22 23 23 22
16 16 16 16 17 17 17 18 18 19 19 19 19 19 22 21 21 22 20 21 21 21 23 24 24 25 26 27 28 29 29 29 28 27 26 26 27 24 22 23 21 23 23 23 22
16 16 16 16 17 17 17 18 18 18 18 18 18 18 23 20 20 21 20 22 21 22 22 22 24 27 27 29 30 29 30 29 28 27 27 27 27 25 23 24 24 23 23 23 23
16 16 16 17 17 17 17 17 17 17 18 18 18 18 21 22 20 21 21 21 23 23 23 23 26 29 30 30 29 30 30 30 29 29 26 27 27 27 24 24 25 24 23 23 23
16 16 17 17 17 16 17 17 18 18 18 20 21 20 21 20 20 21 21 21 23 24 26 26 28 28 30 30 31 30 30 30 29 28 28 28 28 29 25 25 25 25 24 24 24
16 16 17 17 17 16 16 17 15 15 18 19 18 18 19 18 20 21 21 23 24 26 27 28 27 30 30 30 30 30 30 30 29 28 28 29 29 29 28 26 26 26 25 24 24
16 16 17 17 16 16 16 16 16 16 19 21 19 20 20 18 21 23 21 24 26 26 28 28 29 30 30 30 29 30 30 30 30 28 29 28 29 29 29 27 25 26 26 25 25
16 17 17 17 16 16 15 16 16 16 22 23 22 21 20 20 22 21 22 24 26 27 28 28 30 29 29 29 29 29 31 30 29 29 30 29 30 30 29 28 27 26 26 26 25
17 17 17 17 16 16 16 16 16 15 21 22 23 20 21 21 22 23 22 23 26 27 28 27 29 28 28 29 30 29 32 30 30 30 30 30 29 32 30 28 28 27 26 26 26
17 17 17 16 16 15 16 16 16 21 20 22 22 23 23 22 23 23 22 23 25 27 28 28 28 29 29 30 30 30 29 29 29 30 29 31 30 32 32 31 30 28 27 27 26
16 16 16 16 16 16 16 17 21 20 21 21 21 22 23 23 23 23 24 24 25 24 25 26 28 28 28 29 30 29 29 27 27 28 28 31 29 31 32 32 31 30 28 27 26
16 16 16 16 16 16 16 21 19 19 20 21 21 22 22 22 23 23 24 24 25 26 27 26 26 27 28 29 28 28 29 28 26 28 30 31 28 31 32 32 32 31 29 28 27
16 16 15 16 16 17 19 20 18 18 19 19 21 21 22 22 21 22 24 25 25 26 25 27 26 28 28 29 29 28 28 31 30 31 30 31 31 32 32 33 32 31 30 29 28
16 16 16 16 17 17 21 17 18 18 18 19 19 20 20 21 21 23 23 22 23 23 24 26 25 27 28 28 28 29 30 28 29 27 27 29 30 31 32 32 32 32 31 30 29
16 18 16 17 17 19 20 18 18 17 16 18 18 19 19 19 20 21 22 20 20 22 23 26 25 27 27 26 27 27 27 28 30 29 28 28 30 33 32 32 31 31 31 30 29
17 20 16 17 20 18 19 17 15 17 17 17 18 18 18 18 19 20 20 20 18 20 23 25 25 25 25 27 28 29 28 29 28 27 29 30 31 33 31 31 30 31 28 29 29
17 17 15 16 20 19 17 17 16 17 16 16 17 16 17 17 17 19 19 19 17 19 19 23 24 24 25 26 26 26 28 29 29 29 28 28 30 32 31 29 28 28 27 26 28
16 19 17 16 15 18 17 16 16 14 15 14 15 16 16 17 18 17 18 19 18 17 14 17 23 24 25 25 27 25 26 28 29 28 28 29 29 32 31 31 27 27 25 25 25
14 15 13 18 16 16 16 16 16 15 15 14 16 15 15 15 16 17 17 17 19 16 19 20 21 24 25 26 27 27 26 27 27 28 28 29 29 31 31 30 25 24 23 23 24
15 15 14 15 14 15 13 15 15 15 14 15 14 14 14 14 15 14 15 15 16 17 18 20 20 21 23 25 25 25 27 27 27 27 28 29 29 30 27 25 23 21 22 21 20
11 11 12 13 15 16 15 14 14 13 14 13 13 13 14 14 13 12 13 14 15 15 15 17 19 21 22 24 24 24 26 26 27 27 28 27 28 29 23 19 17 17 16 15 14

GFSSW_850_temp_246.txt.gz
Temp
16 16 17 17 17 18 19 19 19 20 21 22 23 23 24 24 24 25 25 26 26 25 24 22 24 25 24 24 26 27 22 22 26 27 29 31 31 30 29 29 28 27 25 24 24
16 16 17 17 17 18 18 19 19 20 21 21 22 23 24 24 25 25 26 26 26 26 24 24 26 26 26 27 27 28 18 19 25 24 30 30 30 29 29 29 28 27 25 24 24
16 16 17 17 17 18 18 19 19 19 20 21 22 23 23 24 25 27 27 27 26 26 24 24 25 27 27 27 27 30 20 29 30 31 31 30 30 28 30 29 28 26 25 24 24
16 16 17 17 18 18 18 19 19 19 20 21 21 22 23 24 27 26 26 27 26 26 24 24 26 24 23 25 27 28 30 29 26 31 30 29 30 27 27 29 27 26 25 25 24
16 16 17 17 17 18 18 18 19 19 20 21 21 21 22 23 26 26 26 26 26 26 25 26 27 25 24 28 28 26 31 30 30 29 28 29 28 28 28 28 27 26 25 25 25
17 17 17 17 18 18 18 18 19 19 20 20 21 21 22 25 27 25 24 26 25 25 25 27 28 30 29 29 27 26 28 29 29 29 29 29 29 27 28 27 27 26 26 26 26
17 17 18 18 18 18 18 18 19 19 20 20 21 21 20 25 26 26 26 24 24 25 26 28 29 30 30 31 27 24 27 30 31 30 30 28 26 27 27 27 27 25 26 26 26
17 18 18 18 18 19 19 19 19 20 20 20 20 21 23 25 25 25 25 26 26 26 27 28 29 29 29 30 30 29 27 29 21 31 29 30 24 26 27 27 26 26 27 27 26
18 18 19 19 19 19 19 20 20 20 20 20 20 21 25 25 25 25 26 27 27 27 28 28 28 28 30 31 29 30 27 24 25 29 31 31 25 22 28 27 26 26 27 27 26
18 19 19 19 19 20 20 20 20 20 20 20 20 22 25 26 26 25 26 26 27 28 28 28 28 29 30 31 29 29 31 30 27 29 28 31 28 26 28 28 26 26 27 27 26
18 18 19 19 19 19 20 20 21 20 20 24 25 26 26 26 25 25 25 26 26 27 28 29 29 28 30 32 32 30 29 30 31 28 28 32 29 28 28 29 27 27 27 27 27
18 18 19 19 19 19 20 22 21 21 22 24 25 25 25 24 25 26 26 26 27 27 29 29 28 30 32 32 33 32 30 31 31 33 33 33 28 30 30 30 28 28 28 28 27
17 18 19 19 19 20 21 21 20 21 23 25 25 25 25 24 26 26 27 27 27 27 28 28 30 31 31 32 32 33 32 32 33 32 33 33 29 30 32 30 29 27 27 28 28
17 18 18 18 19 21 22 21 21 21 23 26 26 25 25 26 26 26 26 27 28 27 28 29 31 31 31 31 32 31 34 33 32 31 30 33 31 33 31 31 29 28 27 28 28
17 18 18 18 20 22 21 21 20 21 24 27 27 25 26 26 27 27 26 27 27 27 28 28 29 30 30 31 32 32 34 34 33 31 32 32 31 33 33 31 30 29 28 27 28
17 17 18 18 20 21 20 21 21 23 23 26 27 27 27 27 28 27 27 26 27 27 28 29 30 31 31 33 33 33 33 33 31 32 30 33 33 32 33 32 32 31 29 28 28
17 17 18 19 20 20 20 21 23 24 26 26 25 26 26 26 28 27 27 27 26 25 25 27 29 31 32 31 33 32 32 30 29 29 29 33 33 31 33 33 32 32 30 29 28
17 18 18 19 20 20 20 23 22 25 25 26 25 25 25 26 27 26 26 26 27 27 26 26 26 29 31 31 31 32 32 30 28 29 31 33 32 34 35 35 34 32 31 28 28
18 18 19 20 21 20 21 23 24 24 24 24 24 25 25 26 25 25 26 26 27 28 26 26 27 31 31 32 32 31 31 32 31 32 32 33 34 36 36 35 35 34 32 31 28
18 19 21 21 21 21 23 22 24 24 23 24 22 24 23 24 24 25 25 25 24 25 27 27 26 29 31 32 32 32 32 30 31 28 28 31 32 33 33 34 35 35 33 32 31
17 21 22 21 21 22 23 24 24 23 22 22 22 22 23 22 23 23 24 22 23 23 24 26 26 27 30 30 30 30 31 30 32 32 30 30 32 34 33 33 34 35 34 32 31
18 22 21 21 22 24 24 24 21 23 22 22 23 22 22 22 21 22 22 21 21 22 23 25 24 25 27 30 32 31 30 30 30 29 32 31 32 36 34 35 34 35 34 33 32
18 23 22 21 23 25 24 24 22 23 22 22 21 22 22 21 20 21 22 23 21 22 22 22 23 23 25 28 30 31 31 31 31 31 30 30 32 30 29 32 32 33 33 32 31
18 24 23 22 22 23 23 23 23 22 21 21 21 21 21 21 21 20 21 23 21 20 20 21 22 22 24 26 29 29 30 30 31 30 30 31 32 32 31 27 31 30 30 31 29
19 23 21 23 23 22 22 22 22 22 21 21 21 21 21 19 19 20 21 22 22 21 22 23 21 23 24 26 26 27 29 29 29 29 29 31 32 33 30 26 30 29 24 24 23
18 19 19 21 21 21 18 21 21 21 21 20 20 20 20 18 19 18 19 20 20 21 21 22 20 21 21 25 26 26 28 30 29 29 30 30 31 30 27 24 23 24 23 21 20
17 17 18 20 22 22 22 21 20 20 20 19 19 19 19 19 17 17 17 18 18 18 19 19 19 19 19 24 25 24 27 28 29 30 30 29 30 24 24 26 23 21 19 18 18

GFSSW_850_temp_249.txt.gz
Temp
16 17 17 18 18 18 19 19 20 20 21 22 23 23 23 24 24 25 26 26 26 26 25 24 23 24 24 24 25 21 19 19 20 24 29 30 29 29 27 25 25 24 23 23 23
16 17 17 18 18 18 19 19 20 20 21 21 22 23 23 24 25 26 26 26 26 26 25 23 25 25 24 26 26 20 18 20 23 21 28 29 29 29 28 25 24 24 23 23 23
16 16 17 17 18 18 18 19 19 20 21 21 21 22 23 24 25 26 27 27 26 26 25 24 25 25 24 26 26 18 19 18 20 21 21 29 28 28 28 25 24 23 24 24 23
16 17 17 17 18 18 18 19 19 20 20 21 22 22 23 23 24 26 26 27 26 26 25 25 25 25 23 24 27 24 21 19 20 22 27 28 28 27 28 25 24 24 24 24 23
17 17 18 18 18 18 18 19 19 20 20 21 21 22 22 23 25 26 26 27 26 26 26 25 26 26 24 28 28 27 27 25 27 28 29 28 27 28 27 25 25 24 24 24 24
17 18 18 18 18 19 19 19 19 20 20 21 21 21 22 22 25 26 26 26 26 26 26 25 26 28 27 28 28 27 27 26 27 28 28 28 26 28 27 25 25 24 24 24 24
18 18 19 19 19 19 19 19 20 20 20 20 21 21 21 24 26 25 25 26 26 25 25 26 27 28 29 29 28 27 24 24 24 28 25 27 23 27 27 26 25 25 25 25 25
18 18 19 19 19 19 20 20 20 20 20 20 21 21 22 25 25 25 26 26 26 26 26 27 27 28 29 29 29 27 24 22 23 22 26 27 21 23 26 26 25 25 25 25 25
18 19 19 19 19 20 20 20 20 20 20 21 20 20 23 25 26 26 26 26 26 27 27 27 28 28 28 26 26 27 24 23 20 22 26 28 23 24 27 26 25 25 26 26 26
18 19 19 20 20 20 20 21 21 21 21 20 21 20 24 26 26 25 25 26 26 27 27 28 28 25 25 24 24 26 26 26 25 27 25 27 25 25 27 26 25 25 26 26 26
18 19 19 20 20 20 21 21 21 21 21 22 23 24 26 25 25 25 25 26 26 26 24 28 24 23 25 26 28 29 30 26 27 27 27 25 26 25 27 26 25 25 26 26 26
18 19 19 20 20 20 21 21 21 21 21 23 25 25 25 25 25 25 26 26 26 23 25 24 24 26 28 29 29 29 28 28 29 29 27 26 27 25 27 27 25 25 26 26 26
18 19 19 20 20 21 21 21 21 22 21 24 25 25 25 25 25 26 26 26 25 24 24 23 25 29 29 28 28 28 27 28 29 30 29 28 25 26 27 28 26 26 27 27 26
18 18 19 20 20 20 21 21 21 21 18 24 25 25 26 26 25 27 27 26 26 23 24 24 26 27 28 28 28 26 30 31 27 27 24 29 25 25 26 27 26 26 27 27 27
18 18 18 19 20 21 21 21 21 21 20 26 27 26 26 26 27 27 27 27 24 24 25 23 25 26 26 28 29 28 30 30 30 26 25 27 26 26 27 27 25 27 27 27 27
17 18 18 19 19 21 21 21 21 19 21 26 27 25 25 26 26 27 27 26 26 25 24 24 27 26 26 29 29 30 30 29 29 25 24 26 27 27 28 28 27 27 27 27 28
18 18 19 19 20 21 21 21 19 19 26 24 23 24 23 24 25 27 25 23 22 22 21 23 24 26 27 26 28 28 26 25 25 24 23 27 26 29 29 30 28 27 27 27 27
18 19 19 20 20 20 21 19 19 25 23 24 23 23 23 25 25 25 24 22 24 23 21 21 21 24 27 25 25 26 26 25 23 24 25 27 26 29 31 32 29 28 28 27 27
19 19 19 20 21 21 21 19 21 22 23 23 23 23 23 24 24 24 23 22 23 21 19 18 20 24 27 27 27 26 26 27 25 26 27 28 30 31 30 30 30 29 28 27 27
18 19 19 20 21 21 20 18 22 24 23 22 21 22 20 21 21 21 22 22 21 22 22 20 18 22 25 27 27 26 28 26 26 24 24 25 27 28 29 30 30 30 29 28 28
18 18 22 21 22 22 18 21 24 23 22 21 20 20 20 20 20 20 20 22 21 21 21 19 18 19 22 22 23 25 26 27 27 25 25 24 25 28 29 31 30 30 29 29 28
18 18 22 21 21 22 20 23 23 23 23 23 22 21 20 20 19 19 19 20 22 22 20 20 18 17 20 24 25 25 25 26 26 23 23 24 27 32 29 27 32 30 29 28 27
16 19 22 22 19 20 23 24 23 23 22 21 21 21 20 18 17 19 20 22 22 21 19 19 16 15 18 21 24 25 23 24 26 24 25 23 25 29 27 27 26 24 29 28 28
15 18 22 22 22 22 21 21 22 22 22 21 20 20 19 18 19 17 19 21 22 21 20 19 17 16 16 18 20 21 23 24 25 23 25 26 27 27 27 26 27 22 21 21 21
16 19 19 18 20 20 20 20 21 21 22 21 20 20 19 17 16 16 18 18 19 20 19 17 15 18 19 20 21 21 22 24 24 24 26 26 26 28 25 24 22 19 19 18 17
17 17 17 18 20 21 19 20 21 21 19 19 18 19 18 16 16 14 15 15 15 17 16 16 15 16 17 19 21 21 22 24 25 25 26 27 25 23 22 18 16 18 18 17 16
15 15 16 18 19 19 20 21 20 20 20 20 18 17 17 16 16 16 17 17 16 15 14 14 14 14 14 17 19 19 21 20 22 25 25 24 24 22 20 18 17 19 20 17 16